Location: Costa Mesa
(33.6411°N, 117.9187°W)
Time: 02:01:14
(UTC+00:00)

DELTA 2 R/B (1) - Pass Details

Date: 10 September 2024
Orbit: 789 x 800 km, 39.6° (Epoch: 10 October)

Event Time Altitude Azimuth Distance (km) Brightness Sun altitude
Exits shadow 12:12:26 20° 291° (WNW) 1,744 4.9 -17.0°
Maximum altitude 12:15:56 46° 356° (N) 1,055 4.3 -16.3°
Drops below altitude 10° 12:21:15 10° 69° (ENE) 2,349 7.4 -15.3°
Sets 12:23:50 0° 75° (ENE) 3,277 8.7 -14.8°
